Regional Weather Roundup
Issued by NWS

Home | Current Version | Previous Version | Graphics & Text | Print | Product List | Glossary On
Versions: 1 2 3 4 5 6 7 8 9 10 11 12 13 14 15 16 17 18 19 20 21 22 23 24 25 26 27 28 29 30 31 32 33 34 35 36 37 38 39 40 41 42 43 44 45 46 47 48 49 50
000
ASUS45 KBOI 030810
RWRID

IDAHO REGIONAL WEATHER ROUNDUP
NATIONAL WEATHER SERVICE BOISE ID
200 AM MDT FRI JUL 03 2015

NOTE: "FAIR" INDICATES FEW OR NO CLOUDS BELOW 12000 FEET
WITH NO SIGNIFICANT WEATHER AND/OR OBSTRUCTIONS TO VISIBILITY

IDZ012-014-030900-
SOUTHWEST IDAHO


CITY           SKY/WX    TMP DP  RH WIND       PRES   REMARKS
BOISE          CLEAR     77  51  40 S3        29.90R
CALDWELL       CLEAR     75  45  33 W8        29.90R
MOUNTAIN HOME  CLEAR     74  38  26 W9        29.89S
$$

IDZ016-017-030900-
SOUTHCENTRAL IDAHO


CITY           SKY/WX    TMP DP  RH WIND       PRES   REMARKS
BURLEY         CLEAR     66  50  56 CALM      29.97S
JEROME         CLEAR     74  45  35 S7        29.97R
TWIN FALLS     CLEAR     79  38  22 S16       29.95S
$$

IDZ019>023-030900-
SOUTHEAST IDAHO


CITY           SKY/WX    TMP DP  RH WIND       PRES   REMARKS
IDAHO FALLS    CLEAR     60  52  74 NE6       30.03F
POCATELLO      CLEAR     70  42  36 E5        30.00S
REXBURG        CLEAR     60  52  74 NE3       30.06S
$$

IDZ006-010-011-018-031-032-030900-
CENTRAL IDAHO MOUNTAINS


CITY           SKY/WX    TMP DP  RH WIND       PRES   REMARKS
MCCALL         CLEAR     64  45  49 N5        30.09S
HAILEY         CLEAR     68  45  42 NW12      30.09S
STANLEY          N/A     51  36  56 S6        30.23R
SALMON         CLEAR     66  37  34 CALM      30.02S
CHALLIS        CLEAR     65  43  44 SE3       30.09S
$$

IDZ002-004-006-007-026-030900-
NORTHERN IDAHO


CITY           SKY/WX    TMP DP  RH WIND       PRES   REMARKS
LEWISTON       CLEAR     80  40  23 S5        29.85S
LOWELL           N/A     65  51  60 N3        29.94S
COEUR D`ALENE  CLEAR     64  52  63 NE6       29.92R
MULLAN PASS    CLEAR     67  38  34 N6        30.18F
$$



USA.gov is the U.S. government's official web portal to all federal, state and local government web resources and services.